HB9EYZ-1 Weather Reports


time (UTC)temp
C
wind
direction
speed
KPH
gust
KPH
rain 1hr
cm
rain 24hr
cm
rain mn
cm
humidity
%
barometer
mb
20260506175101 11 222 0.0 0.0 0.58 0.00 2.54 49 1005.7
20260506174544 11 222 0.0 0.0 0.58 0.00 2.54 49 1005.6
20260506174027 11 223 0.0 0.0 0.58 0.00 2.54 49 1005.6
20260506173511 11 222 0.0 0.0 0.58 0.00 2.54 49 1005.6
20260506171950 11 228 0.0 0.0 0.58 0.00 2.54 49 1005.5
20260506171434 11 225 0.0 0.0 0.58 0.00 2.54 49 1005.3
20260506170917 11 227 0.0 0.0 0.58 0.00 2.54 48 1005.0
20260506170400 11 228 0.0 0.0 0.58 0.00 2.54 49 1005.2
20260506165843 11 215 0.0 0.0 0.58 0.00 2.54 49 1005.2
20260506165325 11 228 0.0 0.0 0.58 0.00 2.54 49 1005.0
20260506164808 11 225 0.0 0.0 0.58 0.00 2.54 49 1005.0
20260506164249 11 225 0.0 0.0 0.58 0.00 2.54 49 1005.1
20260506163733 11 225 0.0 0.0 0.58 0.00 2.54 48 1005.1
20260506163214 11 227 0.0 0.0 0.58 0.00 2.54 48 1005.1
20260506162657 11 225 0.0 0.0 0.58 0.00 2.54 48 1005.0
20260506162140 11 224 0.0 0.0 0.58 0.00 2.54 48 1005.0
20260506161621 11 228 0.0 0.0 0.58 0.00 2.54 48 1004.9
20260506161105 11 234 0.0 0.0 0.58 0.00 2.54 48 1005.0
20260506160548 11 223 0.0 0.0 0.58 0.00 2.54 48 1005.0
20260506160031 11 236 0.0 0.0 0.58 0.00 2.54 48 1004.8
20260506155514 11 233 0.0 0.0 0.58 0.00 2.54 48 1004.9
20260506154955 11 226 0.0 0.0 0.58 0.00 2.54 46 1005.1
20260506154439 11 235 0.0 0.0 0.58 0.00 2.54 45 1005.1
20260506153922 11 236 0.0 0.0 0.58 0.00 2.54 43 1005.2
20260506153405 11 225 0.0 0.0 0.58 0.00 2.54 44 1005.3
20260506152849 11 222 0.0 0.0 0.58 0.00 2.54 44 1005.0
20260506152332 11 225 0.0 0.0 0.58 0.00 2.54 43 1005.0
20260506151815 11 223 0.0 0.0 0.58 0.00 2.54 43 1005.1
20260506151258 11 222 0.0 0.0 0.58 0.00 2.54 43 1005.2
20260506150742 11 224 0.0 0.0 0.58 0.00 2.54 47 1005.2
20260506150225 11 223 0.0 0.0 0.58 0.00 2.54 45 1005.1
20260506145709 11 235 0.0 0.0 0.58 0.00 2.54 47 1004.9
20260506145151 11 227 0.0 0.0 0.58 0.00 2.54 48 1004.9
20260506144632 11 231 0.0 0.0 0.58 0.00 2.54 49 1004.8
20260506144116 11 229 0.0 0.0 0.58 0.00 2.54 49 1004.9
20260506143559 11 233 0.0 0.0 0.58 0.00 2.54 47 1005.0
20260506143042 11 230 0.0 0.0 0.58 0.00 2.54 45 1005.0
20260506142525 10 222 0.0 0.0 0.58 0.00 2.54 49 1005.0
20260506142008 10 233 0.0 0.0 0.58 0.00 2.54 49 1005.1
20260506141451 10 232 0.0 0.0 0.58 0.00 2.54 49 1005.1
20260506140932 11 232 0.0 0.0 0.58 0.00 2.54 49 1005.1
20260506140415 11 213 0.0 0.0 0.58 0.00 2.54 49 1005.2
20260506135858 11 232 0.0 0.0 0.58 0.00 2.54 49 1005.0
20260506135341 11 232 0.0 0.0 0.58 0.00 2.54 49 1005.1
20260506134824 11 225 0.0 0.0 0.58 0.00 2.54 50 1005.0
20260506134307 11 215 0.0 0.0 0.58 0.00 2.54 50 1004.9
20260506133750 10 223 0.0 0.0 0.58 0.00 2.54 51 1005.1
20260506133233 10 224 0.0 0.0 0.58 0.00 2.54 51 1005.2
20260506132715 10 221 0.0 0.0 0.58 0.00 2.54 51 1004.9
20260506132158 10 219 0.0 0.0 0.58 0.00 2.54 51 1004.7
20260506131640 10 211 0.0 0.0 0.58 0.00 2.54 52 1004.9
20260506131124 11 218 0.0 0.0 0.58 0.00 2.54 52 1005.1
20260506130608 11 201 0.0 0.0 0.56 0.00 2.54 53 1005.0
20260506130051 11 223 0.0 0.0 0.56 0.00 2.54 52 1004.8
20260506125534 11 223 0.0 0.0 0.53 0.00 2.54 51 1005.0
20260506125017 11 232 0.0 0.0 0.51 0.00 2.54 52 1004.8
20260506124500 11 231 0.0 0.0 0.51 0.00 2.54 52 1004.5
20260506123944 11 224 0.0 0.0 0.46 0.00 2.54 51 1004.7
20260506123426 11 216 0.0 0.0 0.46 0.00 2.54 51 1004.8
20260506122910 11 231 0.0 0.0 0.43 0.00 2.54 50 1004.5
20260506122353 11 215 0.0 0.0 0.43 0.00 2.54 49 1004.5
20260506121836 11 243 0.0 0.0 0.43 0.00 2.54 50 1004.4
20260506121320 11 245 0.0 0.0 0.41 0.00 2.54 50 1004.6
20260506120803 12 236 0.0 0.0 0.41 0.00 2.54 49 1004.4
20260506120246 12 223 0.0 0.0 0.38 0.00 2.54 49 1004.4
20260506115729 12 221 0.0 0.0 0.36 0.00 2.54 49 1004.2
20260506115213 12 231 0.0 0.0 0.36 0.00 2.54 49 1004.2
20260506114656 12 222 0.0 0.0 0.36 0.00 2.54 50 1004.1
20260506114139 12 225 0.0 0.0 0.30 0.00 2.54 52 1003.6
20260506113622 12 224 0.0 0.0 0.30 0.00 2.54 51 1004.0
20260506113105 12 222 0.0 0.0 0.28 0.00 2.54 51 1003.6
20260506112547 12 221 0.0 0.0 0.28 0.00 2.54 50 1003.5
20260506112030 12 224 0.0 0.0 0.25 0.00 2.54 50 1003.7
20260506111513 12 234 0.0 0.0 0.25 0.00 2.54 52 1003.3
20260506110455 12 234 0.0 0.0 0.25 0.00 2.54 51 1003.6
20260506105938 12 236 0.0 0.0 0.23 0.00 2.54 51 1003.7
20260506105422 12 224 0.0 0.0 0.23 0.00 2.54 50 1003.8
20260506104905 12 223 0.0 0.0 0.23 0.00 2.54 48 1003.7
20260506104348 12 222 0.0 0.0 0.20 0.00 2.54 48 1003.6
20260506103831 12 225 0.0 0.0 0.18 0.00 2.54 48 1003.7
20260506103313 12 228 0.0 0.0 0.18 0.00 2.54 48 1003.5
20260506102756 12 228 0.0 0.0 0.13 0.00 2.54 47 1003.6
20260506102237 12 228 0.0 0.0 0.10 0.00 2.54 45 1003.3
20260506101720 13 226 0.0 0.0 0.08 0.00 2.54 42 1003.3
20260506101203 13 226 0.0 0.0 0.05 0.00 2.54 42 1003.3
20260506100647 13 224 0.0 0.0 0.05 0.00 2.54 42 1003.3
20260506100130 13 228 0.0 0.0 0.05 0.00 2.54 40 1003.4
20260506095613 13 225 0.0 0.0 0.03 0.00 2.54 39 1003.3
20260506095056 13 231 0.0 0.0 0.03 0.00 2.54 37 1003.5
20260506094540 13 231 0.0 0.0 0.00 0.00 2.54 37 1003.4
20260506094023 13 235 0.0 0.0 0.00 0.00 2.54 36 1003.2
20260506093507 13 235 0.0 0.0 0.00 0.00 2.54 37 1003.0
20260506092448 14 245 0.0 0.0 0.00 0.00 2.54 35 1003.0
20260506091931 14 217 0.0 0.0 0.00 0.00 2.54 33 1003.1
20260506091414 14 231 0.0 0.0 0.00 0.00 2.54 33 1003.2
20260506090857 14 219 0.0 0.0 0.00 0.00 2.54 32 1002.9
20260506090340 13 220 0.0 0.0 0.00 0.00 2.54 32 1002.9
20260506085823 13 219 0.0 0.0 0.00 0.00 2.54 32 1002.9
20260506085306 13 217 0.0 0.0 0.00 0.00 2.54 32 1002.9
20260506084749 13 219 0.0 0.0 0.00 0.00 2.54 31 1003.0
20260506084230 13 219 0.0 0.0 0.00 0.00 2.54 31 1003.0
20260506083711 13 220 0.0 0.0 0.00 0.00 2.54 31 1003.2
20260506083154 13 220 0.0 0.0 0.00 0.00 2.54 31 1002.9
20260506082637 13 219 0.0 0.0 0.00 0.00 2.54 32 1003.0
20260506082120 13 222 0.0 0.0 0.00 0.00 2.54 31 1002.9
20260506081603 13 223 0.0 0.0 0.00 0.00 2.54 31 1002.8
20260506081047 13 218 0.0 0.0 0.00 0.00 2.54 31 1002.7
20260506080529 13 217 0.0 0.0 0.00 0.00 2.54 32 1002.6
20260506073343 12 210 0.0 0.0 0.00 0.00 2.54 33 1002.6
20260506072827 12 217 0.0 0.0 0.00 0.00 2.54 33 1003.0
20260506072310 12 219 0.0 0.0 0.00 0.00 2.54 33 1002.8
20260506071753 12 222 0.0 0.0 0.00 0.00 2.54 33 1002.8
20260506071237 12 229 0.0 0.0 0.00 0.00 2.54 32 1003.0
20260506070718 12 222 0.0 0.0 0.00 0.00 2.54 32 1003.0
20260506070201 11 218 0.0 0.0 0.00 0.00 2.54 34 1002.8
20260506062500 11 225 0.0 0.0 0.00 0.00 2.54 38 1002.9
20260506061942 10 230 0.0 0.0 0.00 0.00 2.54 40 1002.7
20260506061423 10 237 0.0 0.0 0.00 0.00 2.54 40 1003.2
20260506060905 10 226 0.0 0.0 0.00 0.00 2.54 42 1002.9
20260506060348 10 224 0.0 0.0 0.00 0.00 2.54 43 1002.9
20260506051102 9 221 0.0 0.0 0.00 0.00 2.54 51 1002.8
20260506050545 9 225 0.0 0.0 0.00 0.00 2.54 52 1003.1
20260506044454 9 230 0.0 0.0 0.00 0.00 2.54 53 1003.1
20260506043937 9 231 0.0 0.0 0.00 0.00 2.54 53 1003.1
20260506043420 10 231 0.0 0.0 0.00 0.00 2.54 53 1003.1
20260506042904 10 231 0.0 0.0 0.00 0.00 2.54 52 1002.8
20260506042347 10 231 0.0 0.0 0.00 0.00 2.54 51 1002.9
20260506041831 10 231 0.0 0.0 0.00 0.00 2.54 52 1002.9
20260506041314 10 226 0.0 0.0 0.00 0.00 2.54 52 1003.1
20260506040758 10 226 0.0 0.0 0.00 0.00 2.54 52 1003.0
20260506040241 10 235 0.0 0.0 0.00 0.00 2.54 52 1003.1
20260506035725 10 235 0.0 0.0 0.00 0.00 2.54 51 1003.4
20260506035208 10 226 0.0 0.0 0.00 0.00 2.54 51 1003.4
20260506034652 10 226 0.0 0.0 0.00 0.00 2.54 51 1003.4
20260506034135 10 226 0.0 0.0 0.00 0.00 2.54 51 1003.5
20260506033618 10 225 0.0 0.0 0.00 0.00 2.54 51 1003.5
20260506033102 10 226 0.0 0.0 0.00 0.00 2.54 51 1003.4
20260506032545 10 226 0.0 0.0 0.00 0.00 2.54 51 1003.6
20260506032029 10 226 0.0 0.0 0.00 0.00 2.54 51 1003.7
20260506031512 10 225 0.0 0.0 0.00 0.00 2.54 52 1003.7
20260506030956 10 230 0.0 0.0 0.00 0.00 2.54 52 1003.6
20260506030439 10 230 0.0 0.0 0.00 0.00 2.54 52 1003.9
20260506025923 10 230 0.0 0.0 0.00 0.00 2.54 52 1003.6
20260506025406 10 231 0.0 0.0 0.00 0.00 2.54 52 1003.7
20260506024849 10 231 0.0 0.0 0.00 0.00 2.54 51 1003.9
20260506024332 10 231 0.0 0.0 0.00 0.00 2.54 51 1003.7
20260506023815 10 231 0.0 0.0 0.00 0.00 2.54 51 1003.7
20260506023259 10 231 0.0 0.0 0.00 0.00 2.54 51 1003.7
20260506022741 10 231 0.0 0.0 0.00 0.00 2.54 51 1004.0
20260506022225 10 231 0.0 0.0 0.00 0.00 2.54 51 1003.7
20260506021709 10 231 0.0 0.0 0.00 0.00 2.54 51 1003.9
20260506021152 10 231 0.0 0.0 0.00 0.00 2.54 51 1003.8
20260506020636 10 231 0.0 0.0 0.00 0.00 2.54 50 1003.8
20260506020119 10 231 0.0 0.0 0.00 0.00 2.54 51 1003.8
20260506015602 10 231 0.0 0.0 0.00 0.00 2.54 51 1003.8
20260506015046 10 231 0.0 0.0 0.00 0.00 2.54 51 1003.8
20260506014527 10 231 0.0 0.0 0.00 0.00 2.54 51 1004.1
20260506014010 10 231 0.0 0.0 0.00 0.00 2.54 51 1004.0
20260506012447 10 231 0.0 0.0 0.00 0.00 2.54 51 1004.4
20260506011930 10 230 0.0 0.0 0.00 0.00 2.54 51 1004.3
20260506011414 10 230 0.0 0.0 0.00 0.00 2.54 51 1004.2
20260506010857 10 230 0.0 0.0 0.00 0.00 2.54 51 1004.3
20260506010340 10 230 0.0 0.0 0.00 0.00 2.54 51 1004.4
20260506005824 10 230 0.0 0.0 0.00 0.00 2.54 51 1004.3
20260506005307 10 231 0.0 0.0 0.00 0.00 2.54 52 1004.6
20260506004751 10 235 0.0 0.0 0.00 0.00 2.54 52 1004.5
20260506004234 10 231 0.0 0.0 0.00 0.00 2.54 52 1004.6
20260506003717 10 232 0.0 0.0 0.00 0.00 2.54 52 1004.9
20260506003201 10 230 0.0 0.0 0.00 0.00 2.54 52 1004.9
20260506002644 10 230 0.0 0.0 0.00 0.00 2.54 52 1004.7
20260506002127 10 230 0.0 0.0 0.00 0.00 2.54 52 1004.8
20260506001611 10 230 0.0 0.0 0.00 0.00 2.54 52 1004.8
20260505230119 10 227 0.0 0.0 0.00 0.00 2.54 54 1005.2
20260505225603 10 227 0.0 0.0 0.00 0.00 2.54 55 1005.6
20260505225046 10 227 0.0 0.0 0.00 0.00 2.54 55 1005.4
20260505224530 10 226 0.0 0.0 0.00 0.00 2.54 55 1005.4
20260505224006 10 229 0.0 0.0 0.00 0.00 2.54 55 1005.3
20260505222948 10 227 0.0 0.0 0.00 0.00 2.54 55 1005.5
20260505222431 10 227 0.0 0.0 0.00 0.00 2.54 55 1005.4
20260505221915 10 227 0.0 0.0 0.00 0.00 2.54 54 1005.3
20260505221357 10 228 0.0 0.0 0.00 0.00 2.54 54 1005.3
20260505220841 10 228 0.0 0.0 0.00 0.00 2.54 54 1005.3
20260505220324 10 228 0.0 0.0 0.00 0.00 2.54 54 1005.5
20260505215251 10 224 0.0 0.0 0.10 0.00 2.54 54 1005.6
20260505214735 10 224 0.0 0.0 0.10 0.00 2.54 54 1005.7
20260505214218 10 230 0.0 0.0 0.10 0.00 2.54 54 1005.4
20260505213701 10 230 0.0 0.0 0.10 0.00 2.54 54 1005.4
20260505213145 10 222 0.0 0.0 0.10 0.00 2.54 54 1005.6
20260505212628 10 222 0.0 0.0 0.10 0.00 2.54 54 1005.4
20260505212112 10 222 0.0 0.0 0.10 0.00 2.54 54 1005.6
20260505211550 10 222 0.0 0.0 0.10 0.00 2.54 55 1005.8
20260505211033 10 227 0.0 0.0 0.10 0.00 2.54 55 1005.7
20260505210516 10 230 0.0 0.0 0.10 0.00 2.54 54 1005.6
20260505210000 11 223 0.0 0.0 0.10 0.00 2.54 53 1005.6
20260505205443 11 230 0.0 0.0 0.10 0.00 2.54 53 1006.0
20260505204926 11 231 0.0 0.0 0.10 0.00 2.54 52 1005.8
20260505204410 11 230 0.0 0.0 0.10 0.00 2.54 52 1006.1
20260505203853 11 230 0.0 0.0 0.10 0.00 2.54 52 1005.6
20260505203336 11 231 0.0 0.0 0.10 0.00 2.54 52 1005.7
20260505202819 11 231 0.0 0.0 0.10 0.00 2.54 51 1005.7
20260505202307 11 231 0.0 0.0 0.10 0.00 2.54 51 1005.7
20260505201746 11 231 0.0 0.0 0.10 0.00 2.54 51 1005.6
20260505201229 11 231 0.0 0.0 0.10 0.00 2.54 51 1005.5
20260505200712 11 231 0.0 0.0 0.10 0.00 2.54 50 1005.4
20260505200155 11 231 0.0 0.0 0.10 0.00 2.54 50 1005.5
20260505195638 12 231 0.0 0.0 0.10 0.00 2.54 50 1005.5
20260505195121 12 231 0.0 0.0 0.10 0.00 2.54 50 1005.3
20260505194605 12 231 0.0 0.0 0.10 0.00 2.54 49 1005.3
20260505194048 12 231 0.0 0.0 0.10 0.00 2.54 48 1005.3
20260505193532 12 231 0.0 0.0 0.10 0.00 2.54 48 1005.3
20260505193015 12 231 0.0 0.0 0.10 0.00 2.54 48 1005.0
20260505192459 12 231 0.0 0.0 0.10 0.00 2.54 48 1005.1
20260505191942 12 231 0.0 0.0 0.10 0.00 2.54 48 1004.9
20260505191425 12 231 0.0 0.0 0.10 0.00 2.54 47 1004.8
20260505190909 12 231 0.0 0.0 0.10 0.00 2.54 46 1005.0
20260505190351 13 237 0.0 0.0 0.10 0.00 2.54 44 1005.1
20260505185834 13 230 0.0 0.0 0.10 0.00 2.54 43 1005.1
20260505185317 13 230 0.0 0.0 0.10 0.00 2.54 43 1004.7
20260505184800 13 222 0.0 0.0 0.10 0.00 2.54 41 1004.7
20260505184243 14 223 0.0 0.0 0.10 0.00 2.54 42 1004.7
20260505183725 14 229 0.0 0.0 0.10 0.00 2.54 42 1004.7
20260505183209 15 228 0.0 0.0 0.10 0.00 2.54 41 1004.9
20260505182652 15 228 0.0 0.0 0.10 0.00 2.54 38 1004.9
20260505182128 15 228 0.0 0.0 0.10 0.00 2.54 38 1004.5
20260505181612 15 228 0.0 0.0 0.10 0.00 2.54 38 1004.5
20260505181055 15 235 0.0 0.0 0.10 0.00 2.54 37 1004.5
20260505180539 15 235 0.0 0.0 0.10 0.00 2.54 37 1004.5
20260505180022 15 226 0.0 0.0 0.10 0.00 2.54 36 1004.4